contact:dominique.lefevre@mio.osupytheas.fr, maurice.libes@osupytheas.fr, didier.mallarino@osupytheas.fr
Project:EMSO http://www.emso-fr.org/EMSO-France
Depth: 2436.0 m
Title:EMSO Ligure Ouest : Data MII capteur CSTAR
DateTime,Latitude,Longitude,Instrument_Serial,Reference_Counts,Signal_Counts,Corrected_Signal_raw_counts,Calculated_Beam_c_inverse_meters,Internal_thermistor_counts
DateTime,Latitude,Longitude,Instrument_Serial,Reference_Counts,Signal_Counts,Corrected_Signal_raw_counts,Calculated_Beam_c_inverse_meters,Internal_thermistor_counts
2019-06-11T00:01:46,42.805,6.029,CST-1368DR,9109,12745,15538,0.020,551
2019-06-11T00:04:48,42.805,6.029,CST-1368DR,9109,12744,15537,0.020,551
2019-06-11T00:07:49,42.805,6.029,CST-1368DR,9109,12745,15538,0.020,551
2019-06-11T00:10:50,42.805,6.029,CST-1368DR,9109,12746,15539,0.020,551
2019-06-11T00:13:52,42.805,6.029,CST-1368DR,9109,12745,15538,0.020,550
2019-06-11T00:16:53,42.805,6.029,CST-1368DR,9109,12746,15539,0.020,551
2019-06-11T00:19:55,42.805,6.029,CST-1368DR,9108,12741,15534,0.021,551
2019-06-11T00:22:56,42.805,6.029,CST-1368DR,9108,12746,15540,0.020,551
2019-06-11T00:25:57,42.805,6.029,CST-1368DR,9108,12745,15540,0.020,551
2019-06-11T00:28:59,42.805,6.029,CST-1368DR,9108,12739,15532,0.022,551
2019-06-11T00:32:00,42.805,6.029,CST-1368DR,9108,12745,15540,0.020,550
2019-06-11T00:35:02,42.805,6.029,CST-1368DR,9108,12745,15540,0.020,551
2019-06-11T00:38:03,42.805,6.029,CST-1368DR,9108,12745,15539,0.020,551
2019-06-11T00:41:04,42.805,6.029,CST-1368DR,9108,12745,15539,0.020,551
2019-06-11T00:44:06,42.805,6.029,CST-1368DR,9108,12745,15539,0.020,551
2019-06-11T00:47:07,42.805,6.029,CST-1368DR,9108,12744,15539,0.020,551
2019-06-11T00:50:09,42.805,6.029,CST-1368DR,9108,12745,15540,0.020,551
2019-06-11T00:53:10,42.805,6.029,CST-1368DR,9108,12744,15538,0.020,551
2019-06-11T00:56:11,42.805,6.029,CST-1368DR,9108,12743,15537,0.020,551
2019-06-11T00:59:13,42.805,6.029,CST-1368DR,9108,12744,15538,0.020,551
2019-06-11T01:02:14,42.805,6.029,CST-1368DR,9108,12744,15539,0.020,551
2019-06-11T01:05:16,42.805,6.029,CST-1368DR,9108,12745,15540,0.020,551
2019-06-11T01:08:17,42.805,6.029,CST-1368DR,9108,12744,15538,0.020,551
2019-06-11T01:11:19,42.805,6.029,CST-1368DR,9108,12744,15538,0.020,551
2019-06-11T01:14:20,42.805,6.029,CST-1368DR,9108,12742,15536,0.021,551
2019-06-11T01:17:21,42.805,6.029,CST-1368DR,9108,12744,15539,0.020,551
2019-06-11T01:20:23,42.805,6.029,CST-1368DR,9108,12744,15539,0.020,551
2019-06-11T01:23:24,42.805,6.029,CST-1368DR,9108,12741,15534,0.021,551
2019-06-11T01:26:26,42.805,6.029,CST-1368DR,9108,12743,15537,0.020,551
2019-06-11T01:29:27,42.805,6.029,CST-1368DR,9108,12742,15535,0.021,551
2019-06-11T01:32:28,42.805,6.029,CST-1368DR,9108,12744,15538,0.020,550
2019-06-11T01:35:30,42.805,6.029,CST-1368DR,9108,12745,15539,0.020,551
2019-06-11T01:38:31,42.805,6.029,CST-1368DR,9108,12742,15536,0.021,551
2019-06-11T01:41:33,42.805,6.029,CST-1368DR,9108,12743,15537,0.020,551
2019-06-11T01:44:34,42.805,6.029,CST-1368DR,9108,12745,15539,0.020,551
2019-06-11T01:47:35,42.805,6.029,CST-1368DR,9108,12744,15538,0.020,551
2019-06-11T01:50:37,42.805,6.029,CST-1368DR,9108,12744,15538,0.020,550
2019-06-11T01:53:38,42.805,6.029,CST-1368DR,9108,12744,15539,0.020,551
2019-06-11T01:56:40,42.805,6.029,CST-1368DR,9107,12744,15540,0.020,551
2019-06-11T01:59:41,42.805,6.029,CST-1368DR,9107,12744,15540,0.020,551
2019-06-11T02:02:42,42.805,6.029,CST-1368DR,9107,12744,15539,0.020,551
2019-06-11T02:05:44,42.805,6.029,CST-1368DR,9107,12745,15541,0.019,551
2019-06-11T02:08:45,42.805,6.029,CST-1368DR,9107,12744,15540,0.020,551
2019-06-11T02:11:47,42.805,6.029,CST-1368DR,9107,12744,15540,0.020,551
2019-06-11T02:14:48,42.805,6.029,CST-1368DR,9107,12744,15540,0.020,551
2019-06-11T02:17:50,42.805,6.029,CST-1368DR,9107,12744,15539,0.020,551
2019-06-11T02:20:51,42.805,6.029,CST-1368DR,9107,12743,15538,0.020,551
2019-06-11T02:23:52,42.805,6.029,CST-1368DR,9107,12742,15538,0.020,551
2019-06-11T02:26:54,42.805,6.029,CST-1368DR,9107,12744,15539,0.020,551
2019-06-11T02:29:55,42.805,6.029,CST-1368DR,9107,12742,15537,0.020,551
2019-06-11T02:32:57,42.805,6.029,CST-1368DR,9107,12742,15538,0.020,551
2019-06-11T02:35:58,42.805,6.029,CST-1368DR,9107,12744,15540,0.020,551
2019-06-11T02:38:59,42.805,6.029,CST-1368DR,9107,12743,15538,0.020,551
2019-06-11T02:42:01,42.805,6.029,CST-1368DR,9107,12743,15539,0.020,551
2019-06-11T02:45:02,42.805,6.029,CST-1368DR,9107,12742,15537,0.020,550
2019-06-11T02:48:04,42.805,6.029,CST-1368DR,9107,12742,15537,0.020,551
2019-06-11T02:51:05,42.805,6.029,CST-1368DR,9107,12742,15538,0.020,551
2019-06-11T02:54:06,42.805,6.029,CST-1368DR,9107,12743,15538,0.020,551
2019-06-11T02:57:08,42.805,6.029,CST-1368DR,9107,12744,15539,0.020,551
2019-06-11T03:00:09,42.805,6.029,CST-1368DR,9107,12742,15538,0.020,551
2019-06-11T03:03:11,42.805,6.029,CST-1368DR,9107,12744,15539,0.020,551
2019-06-11T03:06:12,42.805,6.029,CST-1368DR,9107,12741,15536,0.021,550
2019-06-11T03:09:14,42.805,6.029,CST-1368DR,9107,12743,15538,0.020,551
2019-06-11T03:12:15,42.805,6.029,CST-1368DR,9106,12742,15539,0.020,551
2019-06-11T03:15:16,42.805,6.029,CST-1368DR,9107,12739,15534,0.021,551
2019-06-11T03:18:18,42.805,6.029,CST-1368DR,9107,12744,15539,0.020,550
2019-06-11T03:21:19,42.805,6.029,CST-1368DR,9106,12742,15539,0.020,551
2019-06-11T03:24:21,42.805,6.029,CST-1368DR,9107,12742,15538,0.020,551
2019-06-11T03:27:22,42.805,6.029,CST-1368DR,9106,12741,15538,0.020,551
2019-06-11T03:30:23,42.805,6.029,CST-1368DR,9106,12743,15540,0.020,551
2019-06-11T03:33:25,42.805,6.029,CST-1368DR,9106,12743,15540,0.020,551
2019-06-11T03:36:26,42.805,6.029,CST-1368DR,9106,12742,15539,0.020,551
2019-06-11T03:39:28,42.805,6.029,CST-1368DR,9106,12742,15539,0.020,551
2019-06-11T03:42:29,42.805,6.029,CST-1368DR,9106,12744,15541,0.019,551
2019-06-11T03:45:30,42.805,6.029,CST-1368DR,9106,12730,15524,0.024,551
2019-06-11T03:48:32,42.805,6.029,CST-1368DR,9106,12738,15535,0.021,551
2019-06-11T03:51:33,42.805,6.029,CST-1368DR,9106,12742,15539,0.020,551
2019-06-11T03:54:35,42.805,6.029,CST-1368DR,9106,12742,15539,0.020,551
2019-06-11T03:57:36,42.805,6.029,CST-1368DR,9106,12742,15539,0.020,550
2019-06-11T04:00:37,42.805,6.029,CST-1368DR,9106,12742,15539,0.020,551
2019-06-11T04:03:39,42.805,6.029,CST-1368DR,9106,12740,15537,0.020,551
2019-06-11T04:06:40,42.805,6.029,CST-1368DR,9106,12742,15539,0.020,550
2019-06-11T04:09:42,42.805,6.029,CST-1368DR,9106,12742,15539,0.020,551
2019-06-11T04:12:43,42.805,6.029,CST-1368DR,9106,12741,15538,0.020,551
2019-06-11T04:15:45,42.805,6.029,CST-1368DR,9106,12742,15539,0.020,551
2019-06-11T04:18:46,42.805,6.029,CST-1368DR,9106,12742,15539,0.020,551
2019-06-11T04:21:47,42.805,6.029,CST-1368DR,9106,12742,15539,0.020,550
2019-06-11T04:24:49,42.805,6.029,CST-1368DR,9106,12741,15538,0.020,551
2019-06-11T04:27:50,42.805,6.029,CST-1368DR,9106,12737,15533,0.021,550
2019-06-11T04:30:52,42.805,6.029,CST-1368DR,9106,12741,15538,0.020,551
2019-06-11T04:33:53,42.805,6.029,CST-1368DR,9106,12742,15539,0.020,551
2019-06-11T04:36:54,42.805,6.029,CST-1368DR,9106,12741,15538,0.020,551
2019-06-11T04:39:56,42.805,6.029,CST-1368DR,9106,12741,15538,0.020,551
2019-06-11T04:42:57,42.805,6.029,CST-1368DR,9105,12741,15539,0.020,550
2019-06-11T04:45:59,42.805,6.029,CST-1368DR,9106,12740,15536,0.021,550
2019-06-11T04:49:00,42.805,6.029,CST-1368DR,9105,12735,15532,0.022,551
2019-06-11T04:52:01,42.805,6.029,CST-1368DR,9105,12741,15539,0.020,551
2019-06-11T04:55:03,42.805,6.029,CST-1368DR,9105,12741,15539,0.020,551
2019-06-11T04:58:04,42.805,6.029,CST-1368DR,9105,12739,15537,0.020,551
2019-06-11T05:01:06,42.805,6.029,CST-1368DR,9105,12741,15540,0.020,551
2019-06-11T05:04:07,42.805,6.029,CST-1368DR,9105,12741,15540,0.020,551
2019-06-11T05:07:08,42.805,6.029,CST-1368DR,9105,12739,15537,0.020,551
2019-06-11T05:10:10,42.805,6.029,CST-1368DR,9105,12741,15539,0.020,551
2019-06-11T05:13:11,42.805,6.029,CST-1368DR,9105,12740,15539,0.020,551
2019-06-11T05:16:13,42.805,6.029,CST-1368DR,9105,12742,15540,0.020,551
2019-06-11T05:19:14,42.805,6.029,CST-1368DR,9105,12742,15540,0.020,551
2019-06-11T05:22:16,42.805,6.029,CST-1368DR,9105,12741,15540,0.020,551
2019-06-11T05:25:17,42.805,6.029,CST-1368DR,9105,12738,15536,0.021,551
2019-06-11T05:28:18,42.805,6.029,CST-1368DR,9105,12741,15539,0.020,551
2019-06-11T05:31:20,42.805,6.029,CST-1368DR,9105,12742,15540,0.020,551
2019-06-11T05:34:21,42.805,6.029,CST-1368DR,9105,12741,15539,0.020,551
2019-06-11T05:37:23,42.805,6.029,CST-1368DR,9105,12740,15539,0.020,551
2019-06-11T05:40:24,42.805,6.029,CST-1368DR,9105,12741,15539,0.020,551
2019-06-11T05:43:25,42.805,6.029,CST-1368DR,9105,12740,15538,0.020,551
2019-06-11T05:46:27,42.805,6.029,CST-1368DR,9105,12741,15539,0.020,551
2019-06-11T05:49:28,42.805,6.029,CST-1368DR,9105,12738,15536,0.021,551
2019-06-11T05:52:30,42.805,6.029,CST-1368DR,9105,12741,15539,0.020,551
2019-06-11T05:55:31,42.805,6.029,CST-1368DR,9105,12739,15537,0.020,551
2019-06-11T05:58:32,42.805,6.029,CST-1368DR,9105,12741,15540,0.020,551
2019-06-11T06:01:34,42.805,6.029,CST-1368DR,9105,12740,15538,0.020,551
2019-06-11T06:04:35,42.805,6.029,CST-1368DR,9105,12739,15537,0.020,551
2019-06-11T06:07:37,42.805,6.029,CST-1368DR,9105,12741,15539,0.020,551
2019-06-11T06:10:38,42.805,6.029,CST-1368DR,9105,12740,15538,0.020,551
2019-06-11T06:13:40,42.805,6.029,CST-1368DR,9105,12740,15538,0.020,551
2019-06-11T06:16:41,42.805,6.029,CST-1368DR,9105,12739,15537,0.020,551
2019-06-11T06:19:42,42.805,6.029,CST-1368DR,9105,12741,15539,0.020,551
2019-06-11T06:22:44,42.805,6.029,CST-1368DR,9105,12741,15539,0.020,551
2019-06-11T06:25:45,42.805,6.029,CST-1368DR,9105,12740,15538,0.020,551
2019-06-11T06:28:47,42.805,6.029,CST-1368DR,9105,12740,15538,0.020,550
2019-06-11T06:31:48,42.805,6.029,CST-1368DR,9105,12740,15538,0.020,551
2019-06-11T06:34:49,42.805,6.029,CST-1368DR,9105,12740,15539,0.020,551
2019-06-11T06:37:51,42.805,6.029,CST-1368DR,9104,12739,15538,0.020,551
2019-06-11T06:40:52,42.805,6.029,CST-1368DR,9105,12739,15537,0.020,551
2019-06-11T06:43:54,42.805,6.029,CST-1368DR,9104,12740,15539,0.020,551
2019-06-11T06:46:55,42.805,6.029,CST-1368DR,9104,12741,15540,0.020,551
2019-06-11T06:49:56,42.805,6.029,CST-1368DR,9104,12740,15539,0.020,551
2019-06-11T06:52:58,42.805,6.029,CST-1368DR,9104,12740,15539,0.020,551
2019-06-11T06:55:59,42.805,6.029,CST-1368DR,9104,12741,15540,0.020,551
2019-06-11T06:59:01,42.805,6.029,CST-1368DR,9104,12739,15539,0.020,551
2019-06-11T07:02:02,42.805,6.029,CST-1368DR,9104,12740,15539,0.020,551
2019-06-11T07:05:03,42.805,6.029,CST-1368DR,9104,12739,15538,0.020,551
2019-06-11T07:08:05,42.805,6.029,CST-1368DR,9104,12738,15537,0.020,551
2019-06-11T07:11:06,42.805,6.029,CST-1368DR,9104,12739,15539,0.020,550
2019-06-11T07:14:08,42.805,6.029,CST-1368DR,9104,12740,15539,0.020,551
2019-06-11T07:17:09,42.805,6.029,CST-1368DR,9104,12738,15538,0.020,551
2019-06-11T07:20:11,42.805,6.029,CST-1368DR,9104,12739,15539,0.020,550
2019-06-11T07:23:12,42.805,6.029,CST-1368DR,9104,12737,15536,0.021,551
2019-06-11T07:26:13,42.805,6.029,CST-1368DR,9104,12740,15539,0.020,551
2019-06-11T07:29:15,42.805,6.029,CST-1368DR,9104,12739,15538,0.020,551
2019-06-11T07:32:16,42.805,6.029,CST-1368DR,9104,12739,15538,0.020,551
2019-06-11T07:35:18,42.805,6.029,CST-1368DR,9104,12740,15539,0.020,551
2019-06-11T07:38:19,42.805,6.029,CST-1368DR,9104,12738,15537,0.020,551
2019-06-11T07:41:20,42.805,6.029,CST-1368DR,9104,12739,15538,0.020,551
2019-06-11T07:44:22,42.805,6.029,CST-1368DR,9104,12739,15538,0.020,551
2019-06-11T07:47:23,42.805,6.029,CST-1368DR,9104,12740,15539,0.020,551
2019-06-11T07:50:25,42.805,6.029,CST-1368DR,9104,12739,15539,0.020,551
2019-06-11T07:53:26,42.805,6.029,CST-1368DR,9104,12740,15540,0.020,551
2019-06-11T07:56:27,42.805,6.029,CST-1368DR,9104,12739,15539,0.020,551
2019-06-11T07:59:29,42.805,6.029,CST-1368DR,9104,12739,15539,0.020,551
2019-06-11T08:02:30,42.805,6.029,CST-1368DR,9104,12740,15539,0.020,551
2019-06-11T08:05:32,42.805,6.029,CST-1368DR,9104,12739,15538,0.020,551
2019-06-11T08:08:33,42.805,6.029,CST-1368DR,9104,12739,15539,0.020,551
2019-06-11T08:11:34,42.805,6.029,CST-1368DR,9104,12739,15539,0.020,550
2019-06-11T08:14:36,42.805,6.029,CST-1368DR,9104,12738,15537,0.020,551
2019-06-11T08:17:37,42.805,6.029,CST-1368DR,9104,12738,15537,0.020,551
2019-06-11T08:20:39,42.805,6.029,CST-1368DR,9103,12739,15540,0.020,551
2019-06-11T08:23:40,42.805,6.029,CST-1368DR,9103,12739,15540,0.020,551
2019-06-11T08:26:42,42.805,6.029,CST-1368DR,9103,12738,15539,0.020,551
2019-06-11T08:29:43,42.805,6.029,CST-1368DR,9103,12739,15540,0.020,551
2019-06-11T08:32:44,42.805,6.029,CST-1368DR,9103,12738,15539,0.020,551
2019-06-11T08:35:46,42.805,6.029,CST-1368DR,9103,12738,15539,0.020,551
2019-06-11T08:38:47,42.805,6.029,CST-1368DR,9103,12739,15540,0.020,551
2019-06-11T08:41:49,42.805,6.029,CST-1368DR,9103,12736,15536,0.021,551
2019-06-11T08:44:50,42.805,6.029,CST-1368DR,9103,12734,15534,0.021,551
2019-06-11T08:47:51,42.805,6.029,CST-1368DR,9103,12737,15537,0.020,551
2019-06-11T08:50:53,42.805,6.029,CST-1368DR,9103,12738,15539,0.020,551
2019-06-11T08:53:54,42.805,6.029,CST-1368DR,9103,12738,15539,0.020,551
2019-06-11T08:56:56,42.805,6.029,CST-1368DR,9103,12739,15540,0.020,551
2019-06-11T08:59:57,42.805,6.029,CST-1368DR,9103,12737,15538,0.020,551
2019-06-11T09:02:58,42.805,6.029,CST-1368DR,9103,12738,15539,0.020,551
2019-06-11T09:06:00,42.805,6.029,CST-1368DR,9103,12737,15537,0.020,551
2019-06-11T09:09:01,42.805,6.029,CST-1368DR,9103,12737,15538,0.020,551
2019-06-11T09:12:03,42.805,6.029,CST-1368DR,9103,12737,15538,0.020,551
2019-06-11T09:15:04,42.805,6.029,CST-1368DR,9103,12737,15537,0.020,551
2019-06-11T09:18:05,42.805,6.029,CST-1368DR,9103,12737,15538,0.020,551
2019-06-11T09:21:07,42.805,6.029,CST-1368DR,9103,12738,15538,0.020,551
2019-06-11T09:24:08,42.805,6.029,CST-1368DR,9103,12738,15538,0.020,551
2019-06-11T09:27:10,42.805,6.029,CST-1368DR,9103,12737,15538,0.020,551
2019-06-11T09:30:11,42.805,6.029,CST-1368DR,9103,12737,15538,0.020,551
2019-06-11T09:33:13,42.805,6.029,CST-1368DR,9103,12738,15539,0.020,551
2019-06-11T09:36:14,42.805,6.029,CST-1368DR,9103,12737,15537,0.020,551
2019-06-11T09:39:15,42.805,6.029,CST-1368DR,9103,12738,15539,0.020,551
2019-06-11T09:42:17,42.805,6.029,CST-1368DR,9103,12738,15538,0.020,551
2019-06-11T09:45:18,42.805,6.029,CST-1368DR,9103,12737,15537,0.020,551
2019-06-11T09:48:20,42.805,6.029,CST-1368DR,9103,12737,15537,0.020,551
2019-06-11T09:51:21,42.805,6.029,CST-1368DR,9103,12737,15537,0.020,551
2019-06-11T09:54:22,42.805,6.029,CST-1368DR,9103,12736,15537,0.020,551
2019-06-11T09:57:24,42.805,6.029,CST-1368DR,9103,12736,15537,0.020,551
2019-06-11T10:00:25,42.805,6.029,CST-1368DR,9102,12738,15540,0.020,551
2019-06-11T10:03:27,42.805,6.029,CST-1368DR,9102,12737,15539,0.020,551
2019-06-11T10:06:28,42.805,6.029,CST-1368DR,9103,12736,15537,0.020,551
2019-06-11T10:09:29,42.805,6.029,CST-1368DR,9102,12737,15539,0.020,551
2019-06-11T10:12:31,42.805,6.029,CST-1368DR,9102,12737,15539,0.020,551
2019-06-11T10:15:32,42.805,6.029,CST-1368DR,9102,12736,15537,0.020,551
2019-06-11T10:18:34,42.805,6.029,CST-1368DR,9102,12738,15540,0.020,551
2019-06-11T10:21:35,42.805,6.029,CST-1368DR,9102,12737,15539,0.020,551
2019-06-11T10:24:36,42.805,6.029,CST-1368DR,9102,12736,15538,0.020,551
2019-06-11T10:27:38,42.805,6.029,CST-1368DR,9102,12736,15538,0.020,551
2019-06-11T10:30:39,42.805,6.029,CST-1368DR,9102,12736,15538,0.020,551
2019-06-11T10:33:41,42.805,6.029,CST-1368DR,9102,12735,15537,0.020,551
2019-06-11T10:36:42,42.805,6.029,CST-1368DR,9102,12736,15538,0.020,551
2019-06-11T10:39:44,42.805,6.029,CST-1368DR,9102,12736,15538,0.020,551
2019-06-11T10:42:45,42.805,6.029,CST-1368DR,9102,12736,15538,0.020,551
2019-06-11T10:45:46,42.805,6.029,CST-1368DR,9102,12735,15536,0.021,551
2019-06-11T10:48:48,42.805,6.029,CST-1368DR,9102,12737,15539,0.020,551
2019-06-11T10:51:49,42.805,6.029,CST-1368DR,9102,12735,15537,0.020,551
2019-06-11T10:54:51,42.805,6.029,CST-1368DR,9102,12737,15539,0.020,551
2019-06-11T10:57:52,42.805,6.029,CST-1368DR,9102,12737,15539,0.020,551
2019-06-11T11:00:53,42.805,6.029,CST-1368DR,9102,12733,15534,0.021,551
2019-06-11T11:03:55,42.805,6.029,CST-1368DR,9102,12736,15537,0.020,551
2019-06-11T11:06:56,42.805,6.029,CST-1368DR,9102,12735,15537,0.020,551
2019-06-11T11:09:58,42.805,6.029,CST-1368DR,9102,12736,15538,0.020,551
2019-06-11T11:12:59,42.805,6.029,CST-1368DR,9102,12734,15535,0.021,551
2019-06-11T11:16:00,42.805,6.029,CST-1368DR,9102,12736,15537,0.020,551
2019-06-11T11:19:02,42.805,6.029,CST-1368DR,9102,12735,15536,0.021,551
2019-06-11T11:22:03,42.805,6.029,CST-1368DR,9102,12735,15536,0.021,551
2019-06-11T11:25:05,42.805,6.029,CST-1368DR,9102,12736,15537,0.020,551
2019-06-11T11:28:06,42.805,6.029,CST-1368DR,9102,12734,15535,0.021,551
2019-06-11T11:31:08,42.805,6.029,CST-1368DR,9102,12734,15535,0.021,551
2019-06-11T11:34:09,42.805,6.029,CST-1368DR,9102,12735,15537,0.020,551
2019-06-11T11:37:10,42.805,6.029,CST-1368DR,9102,12734,15536,0.021,551
2019-06-11T11:40:12,42.805,6.029,CST-1368DR,9102,12734,15535,0.021,551
2019-06-11T11:43:13,42.805,6.029,CST-1368DR,9102,12734,15536,0.021,551
2019-06-11T11:46:15,42.805,6.029,CST-1368DR,9101,12736,15539,0.020,551
2019-06-11T11:49:16,42.805,6.029,CST-1368DR,9102,12734,15536,0.021,551
2019-06-11T11:52:17,42.805,6.029,CST-1368DR,9102,12734,15535,0.021,551
2019-06-11T11:55:19,42.805,6.029,CST-1368DR,9101,12735,15538,0.020,550
2019-06-11T11:58:20,42.805,6.029,CST-1368DR,9101,12734,15537,0.020,551
2019-06-11T12:01:22,42.805,6.029,CST-1368DR,9101,12735,15538,0.020,551
2019-06-11T12:04:23,42.805,6.029,CST-1368DR,9101,12735,15538,0.020,551
2019-06-11T12:07:24,42.805,6.029,CST-1368DR,9101,12732,15534,0.021,551
2019-06-11T12:10:26,42.805,6.029,CST-1368DR,9101,12734,15537,0.020,551
2019-06-11T12:13:27,42.805,6.029,CST-1368DR,9101,12724,15525,0.023,551
2019-06-11T12:16:29,42.805,6.029,CST-1368DR,9101,12735,15538,0.020,551
2019-06-11T12:19:30,42.805,6.029,CST-1368DR,9101,12733,15535,0.021,551
2019-06-11T12:22:31,42.805,6.029,CST-1368DR,9101,12735,15538,0.020,551
2019-06-11T12:25:33,42.805,6.029,CST-1368DR,9101,12735,15538,0.020,551
2019-06-11T12:28:34,42.805,6.029,CST-1368DR,9101,12732,15534,0.021,551
2019-06-11T12:31:36,42.805,6.029,CST-1368DR,9101,12734,15537,0.020,551
2019-06-11T12:34:37,42.805,6.029,CST-1368DR,9101,12735,15538,0.020,551
2019-06-11T12:37:39,42.805,6.029,CST-1368DR,9101,12734,15537,0.020,551
2019-06-11T12:40:40,42.805,6.029,CST-1368DR,9101,12729,15530,0.022,551
2019-06-11T12:43:41,42.805,6.029,CST-1368DR,9101,12735,15538,0.020,551
2019-06-11T12:46:43,42.805,6.029,CST-1368DR,9101,12734,15537,0.020,551
2019-06-11T12:49:44,42.805,6.029,CST-1368DR,9101,12735,15538,0.020,551
2019-06-11T12:52:46,42.805,6.029,CST-1368DR,9101,12735,15538,0.020,550
2019-06-11T12:55:47,42.805,6.029,CST-1368DR,9101,12735,15538,0.020,551
2019-06-11T12:58:48,42.805,6.029,CST-1368DR,9101,12734,15537,0.020,551
2019-06-11T13:01:50,42.805,6.029,CST-1368DR,9101,12735,15538,0.020,551
2019-06-11T13:04:51,42.805,6.029,CST-1368DR,9101,12735,15538,0.020,550
2019-06-11T13:07:53,42.805,6.029,CST-1368DR,9101,12732,15534,0.021,551
2019-06-11T13:10:54,42.805,6.029,CST-1368DR,9101,12734,15537,0.020,551
2019-06-11T13:13:55,42.805,6.029,CST-1368DR,9101,12733,15535,0.021,551
2019-06-11T13:16:57,42.805,6.029,CST-1368DR,9101,12733,15536,0.021,551
2019-06-11T13:19:58,42.805,6.029,CST-1368DR,9101,12730,15532,0.022,551
2019-06-11T13:23:00,42.805,6.029,CST-1368DR,9101,12734,15537,0.020,551
2019-06-11T13:26:01,42.805,6.029,CST-1368DR,9101,12732,15534,0.021,551
2019-06-11T13:29:02,42.805,6.029,CST-1368DR,9101,12734,15537,0.020,551
2019-06-11T13:32:04,42.805,6.029,CST-1368DR,9101,12734,15537,0.020,551
2019-06-11T13:35:05,42.805,6.029,CST-1368DR,9101,12734,15537,0.020,551
2019-06-11T13:38:07,42.805,6.029,CST-1368DR,9101,12733,15536,0.021,551
2019-06-11T13:41:08,42.805,6.029,CST-1368DR,9101,12734,15537,0.020,551
2019-06-11T13:44:10,42.805,6.029,CST-1368DR,9101,12735,15538,0.020,551
2019-06-11T13:47:11,42.805,6.029,CST-1368DR,9101,12735,15538,0.020,551
2019-06-11T13:50:12,42.805,6.029,CST-1368DR,9100,12734,15538,0.020,551
2019-06-11T13:53:14,42.805,6.029,CST-1368DR,9100,12734,15539,0.020,551
2019-06-11T13:56:15,42.805,6.029,CST-1368DR,9100,12735,15539,0.020,551
2019-06-11T13:59:17,42.805,6.029,CST-1368DR,9100,12734,15539,0.020,551
2019-06-11T14:02:18,42.805,6.029,CST-1368DR,9100,12734,15539,0.020,551
2019-06-11T14:05:19,42.805,6.029,CST-1368DR,9100,12733,15538,0.020,551
2019-06-11T14:08:21,42.805,6.029,CST-1368DR,9100,12732,15537,0.020,551
2019-06-11T14:11:22,42.805,6.029,CST-1368DR,9100,12733,15538,0.020,551
2019-06-11T14:14:24,42.805,6.029,CST-1368DR,9100,12734,15538,0.020,551
2019-06-11T14:17:25,42.805,6.029,CST-1368DR,9100,12734,15538,0.020,551
2019-06-11T14:20:26,42.805,6.029,CST-1368DR,9100,12734,15538,0.020,551
2019-06-11T14:23:28,42.805,6.029,CST-1368DR,9100,12734,15538,0.020,551
2019-06-11T14:26:29,42.805,6.029,CST-1368DR,9100,12732,15536,0.021,551
2019-06-11T14:29:31,42.805,6.029,CST-1368DR,9100,12734,15538,0.020,551
2019-06-11T14:32:32,42.805,6.029,CST-1368DR,9100,12733,15537,0.020,551
2019-06-11T14:35:33,42.805,6.029,CST-1368DR,9100,12732,15536,0.021,551
2019-06-11T14:38:35,42.805,6.029,CST-1368DR,9100,12733,15537,0.020,551
2019-06-11T14:41:36,42.805,6.029,CST-1368DR,9100,12734,15538,0.020,551
2019-06-11T14:44:38,42.805,6.029,CST-1368DR,9100,12733,15537,0.020,551
2019-06-11T14:47:39,42.805,6.029,CST-1368DR,9100,12734,15538,0.020,550
2019-06-11T14:50:41,42.805,6.029,CST-1368DR,9100,12731,15534,0.021,551
2019-06-11T14:53:42,42.805,6.029,CST-1368DR,9100,12734,15538,0.020,551
2019-06-11T14:56:43,42.805,6.029,CST-1368DR,9099,12730,15535,0.021,551
2019-06-11T14:59:45,42.805,6.029,CST-1368DR,9099,12731,15537,0.020,551
2019-06-11T15:02:46,42.805,6.029,CST-1368DR,9099,12733,15539,0.020,551
2019-06-11T15:05:48,42.805,6.029,CST-1368DR,9100,12732,15536,0.021,550
2019-06-11T15:08:49,42.805,6.029,CST-1368DR,9100,12727,15530,0.022,551
2019-06-11T15:11:50,42.805,6.029,CST-1368DR,9099,12732,15538,0.020,551
2019-06-11T15:14:52,42.805,6.029,CST-1368DR,9100,12732,15537,0.020,550
2019-06-11T15:17:53,42.805,6.029,CST-1368DR,9099,12731,15537,0.020,551
2019-06-11T15:20:55,42.805,6.029,CST-1368DR,9099,12732,15538,0.020,551
2019-06-11T15:23:56,42.805,6.029,CST-1368DR,9099,12731,15537,0.020,551
2019-06-11T15:26:57,42.805,6.029,CST-1368DR,9099,12730,15536,0.021,551
2019-06-11T15:29:59,42.805,6.029,CST-1368DR,9099,12731,15536,0.021,551
2019-06-11T15:33:00,42.805,6.029,CST-1368DR,9099,12731,15536,0.021,550
2019-06-11T15:36:02,42.805,6.029,CST-1368DR,9099,12730,15535,0.021,551
2019-06-11T15:39:03,42.805,6.029,CST-1368DR,9099,12732,15537,0.020,551
2019-06-11T15:42:04,42.805,6.029,CST-1368DR,9099,12733,15538,0.020,551
2019-06-11T15:45:06,42.805,6.029,CST-1368DR,9099,12727,15532,0.022,550
2019-06-11T15:48:07,42.805,6.029,CST-1368DR,9099,12732,15538,0.020,551
2019-06-11T15:51:09,42.805,6.029,CST-1368DR,9099,12731,15537,0.020,551
2019-06-11T15:54:10,42.805,6.029,CST-1368DR,9099,12731,15536,0.021,551
2019-06-11T15:57:12,42.805,6.029,CST-1368DR,9099,12729,15534,0.021,551
2019-06-11T16:00:13,42.805,6.029,CST-1368DR,9099,12731,15536,0.021,551
2019-06-11T16:03:14,42.805,6.029,CST-1368DR,9099,12731,15537,0.020,551
2019-06-11T16:06:16,42.805,6.029,CST-1368DR,9099,12731,15536,0.021,551
2019-06-11T16:09:17,42.805,6.029,CST-1368DR,9099,12730,15535,0.021,551
2019-06-11T16:12:19,42.805,6.029,CST-1368DR,9099,12731,15537,0.020,551
2019-06-11T16:15:20,42.805,6.029,CST-1368DR,9099,12730,15535,0.021,551
2019-06-11T16:18:21,42.805,6.029,CST-1368DR,9099,12731,15536,0.021,550
2019-06-11T16:21:23,42.805,6.029,CST-1368DR,9099,12731,15536,0.021,551
2019-06-11T16:24:24,42.805,6.029,CST-1368DR,9099,12731,15536,0.021,551
2019-06-11T16:27:26,42.805,6.029,CST-1368DR,9099,12731,15536,0.021,551
2019-06-11T16:30:27,42.805,6.029,CST-1368DR,9099,12730,15535,0.021,550
2019-06-11T16:33:28,42.805,6.029,CST-1368DR,9099,12731,15536,0.021,551
2019-06-11T16:36:30,42.805,6.029,CST-1368DR,9099,12731,15536,0.021,551